| time (UTC) | temp F | wind direction | speed MPH | gust MPH | rain 1hr in | rain 24hr in | rain mn in | humidity % | barometer mb |
| 20260902042229 | 76 | 121 | 5.0 | 5.0 | 0.00 | 0.00 | 0.00 | 53 | 1016.4 |
| 20260902041724 | 76 | 78 | 3.0 | 5.0 | 0.00 | 0.00 | 0.00 | 54 | 1016.4 |
| 20260902041218 | 76 | 89 | 3.0 | 4.0 | 0.00 | 0.00 | 0.00 | 53 | 1016.4 |
| 20260902040718 | 77 | 73 | 3.0 | 3.0 | 0.00 | 0.00 | 0.00 | 53 | 1016.4 |
| 20260902040214 | 77 | 76 | 3.0 | 5.0 | 0.00 | 0.00 | 0.00 | 53 | 1016.6 |
| 20260902035712 | 76 | 89 | 2.0 | 3.0 | 0.00 | 0.00 | 0.00 | 54 | 1016.5 |
| 20260902035208 | 76 | 147 | 3.0 | 5.0 | 0.00 | 0.00 | 0.00 | 54 | 1016.4 |
| 20260902034707 | 76 | 67 | 2.0 | 2.0 | 0.00 | 0.00 | 0.00 | 54 | 1016.3 |
| 20260902034206 | 76 | 100 | 3.0 | 5.0 | 0.00 | 0.00 | 0.00 | 54 | 1016.4 |
| 20260902033705 | 76 | 109 | 3.0 | 3.0 | 0.00 | 0.00 | 0.00 | 54 | 1016.2 |
| 20260902033201 | 76 | 87 | 3.0 | 5.0 | 0.00 | 0.00 | 0.00 | 55 | 1016.0 |
| 20260902032659 | 77 | 106 | 4.0 | 4.0 | 0.00 | 0.00 | 0.00 | 54 | 1016.0 |
| 20260902032154 | 76 | 120 | 4.0 | 5.0 | 0.00 | 0.00 | 0.00 | 55 | 1016.0 |
| 20260902031648 | 76 | 117 | 0.0 | 1.0 | 0.00 | 0.00 | 0.00 | 55 | 1016.0 |
| 20260902031144 | 76 | 96 | 2.0 | 2.0 | 0.00 | 0.00 | 0.00 | 56 | 1015.9 |
| 20260902030640 | 76 | 72 | 4.0 | 5.0 | 0.00 | 0.00 | 0.00 | 56 | 1016.0 |
| 20260902030139 | 76 | 132 | 1.0 | 4.0 | 0.00 | 0.00 | 0.00 | 56 | 1016.0 |
| 20260902025638 | 76 | 89 | 0.0 | 1.0 | 0.00 | 0.00 | 0.00 | 56 | 1015.7 |
| 20260902025134 | 76 | 6 | 3.0 | 3.0 | 0.00 | 0.00 | 0.00 | 56 | 1015.8 |
| 20260902024629 | 76 | 208 | 2.0 | 3.0 | 0.00 | 0.00 | 0.00 | 57 | 1015.7 |
| 20260902024124 | 76 | 226 | 3.0 | 3.0 | 0.00 | 0.00 | 0.00 | 57 | 1015.7 |
| 20260902023620 | 76 | 271 | 1.0 | 3.0 | 0.00 | 0.00 | 0.00 | 56 | 1015.8 |
| 20260902023114 | 77 | 309 | 2.0 | 4.0 | 0.00 | 0.00 | 0.00 | 55 | 1015.4 |
| 20260902022614 | 77 | 338 | 3.0 | 4.0 | 0.00 | 0.00 | 0.00 | 56 | 1015.3 |
| 20260902022110 | 77 | 342 | 4.0 | 5.0 | 0.00 | 0.00 | 0.00 | 55 | 1015.4 |
| 20260902021605 | 77 | 349 | 4.0 | 8.0 | 0.00 | 0.00 | 0.00 | 56 | 1015.1 |
| 20260902021100 | 76 | 335 | 4.0 | 6.0 | 0.00 | 0.00 | 0.00 | 56 | 1015.1 |
| 20260902020556 | 76 | 341 | 4.0 | 6.0 | 0.00 | 0.00 | 0.00 | 56 | 1015.3 |
| 20260902020051 | 77 | 328 | 6.0 | 9.0 | 0.00 | 0.00 | 0.00 | 55 | 1015.0 |
| 20260902015547 | 77 | 323 | 8.0 | 9.0 | 0.00 | 0.00 | 0.00 | 55 | 1014.9 |
| 20260902015043 | 77 | 325 | 9.0 | 11.0 | 0.00 | 0.00 | 0.00 | 54 | 1014.9 |
| 20260902014539 | 77 | 334 | 6.0 | 11.0 | 0.00 | 0.00 | 0.00 | 55 | 1015.0 |
| 20260902014034 | 77 | 332 | 8.0 | 10.0 | 0.00 | 0.00 | 0.00 | 55 | 1015.0 |
| 20260902013533 | 77 | 315 | 10.0 | 14.0 | 0.00 | 0.00 | 0.00 | 55 | 1015.0 |
| 20260902013029 | 77 | 311 | 14.0 | 16.0 | 0.00 | 0.00 | 0.00 | 54 | 1015.0 |
| 20260902012524 | 78 | 314 | 19.0 | 22.0 | 0.00 | 0.00 | 0.00 | 54 | 1015.1 |
| 20260902012020 | 78 | 307 | 10.0 | 18.0 | 0.00 | 0.00 | 0.00 | 52 | 1014.6 |
| 20260902011515 | 78 | 288 | 13.0 | 18.0 | 0.00 | 0.00 | 0.00 | 51 | 1015.1 |
| 20260902011015 | 78 | 296 | 16.0 | 29.0 | 0.00 | 0.00 | 0.00 | 51 | 1014.8 |
| 20260902010514 | 79 | 290 | 24.0 | 28.0 | 0.00 | 0.00 | 0.00 | 50 | 1014.8 |
| 20260902010010 | 81 | 283 | 20.0 | 28.0 | 0.00 | 0.00 | 0.00 | 47 | 1015.0 |
| 20260902005508 | 88 | 197 | 6.0 | 10.0 | 0.00 | 0.00 | 0.00 | 31 | 1014.5 |
| 20260902005004 | 88 | 160 | 7.0 | 12.0 | 0.00 | 0.00 | 0.00 | 31 | 1014.2 |
| 20260902004504 | 88 | 168 | 11.0 | 12.0 | 0.00 | 0.00 | 0.00 | 31 | 1014.0 |
| 20260902003959 | 88 | 157 | 7.0 | 10.0 | 0.00 | 0.00 | 0.00 | 30 | 1014.1 |
| 20260902003454 | 88 | 170 | 10.0 | 14.0 | 0.00 | 0.00 | 0.00 | 30 | 1014.0 |
| 20260902002949 | 88 | 173 | 8.0 | 15.0 | 0.00 | 0.00 | 0.00 | 30 | 1014.2 |
| 20260902002445 | 89 | 142 | 12.0 | 17.0 | 0.00 | 0.00 | 0.00 | 30 | 1013.9 |
| 20260902001944 | 89 | 167 | 12.0 | 17.0 | 0.00 | 0.00 | 0.00 | 30 | 1013.9 |
| 20260902001439 | 89 | 184 | 9.0 | 16.0 | 0.00 | 0.00 | 0.00 | 30 | 1013.8 |
| 20260902000934 | 90 | 176 | 9.0 | 13.0 | 0.00 | 0.00 | 0.00 | 29 | 1013.8 |
| 20260902000429 | 90 | 177 | 9.0 | 15.0 | 0.00 | 0.00 | 0.00 | 29 | 1013.9 |
| 20260901235924 | 91 | 208 | 14.0 | 16.0 | 0.00 | 0.00 | 0.00 | 28 | 1013.8 |
| 20260901235419 | 90 | 127 | 15.0 | 19.0 | 0.00 | 0.00 | 0.00 | 29 | 1013.8 |
| 20260901234914 | 90 | 133 | 10.0 | 15.0 | 0.00 | 0.00 | 0.00 | 30 | 1013.6 |
| 20260901234408 | 90 | 162 | 7.0 | 11.0 | 0.00 | 0.00 | 0.00 | 29 | 1013.4 |
| 20260901233903 | 90 | 152 | 9.0 | 13.0 | 0.00 | 0.00 | 0.00 | 30 | 1013.8 |
| 20260901233358 | 90 | 141 | 14.0 | 17.0 | 0.00 | 0.00 | 0.00 | 29 | 1013.6 |
| 20260901232855 | 90 | 160 | 13.0 | 15.0 | 0.00 | 0.00 | 0.00 | 29 | 1013.6 |
| 20260901232355 | 91 | 170 | 14.0 | 20.0 | 0.00 | 0.00 | 0.00 | 28 | 1013.8 |
| 20260901231850 | 91 | 168 | 10.0 | 15.0 | 0.00 | 0.00 | 0.00 | 29 | 1013.8 |
| 20260901231347 | 91 | 161 | 14.0 | 18.0 | 0.00 | 0.00 | 0.00 | 28 | 1013.6 |
| 20260901230843 | 91 | 128 | 12.0 | 19.0 | 0.00 | 0.00 | 0.00 | 29 | 1013.6 |
| 20260901230342 | 91 | 121 | 9.0 | 14.0 | 0.00 | 0.00 | 0.00 | 29 | 1013.7 |
| 20260901225838 | 91 | 116 | 9.0 | 12.0 | 0.00 | 0.00 | 0.00 | 28 | 1013.7 |
| 20260901225337 | 91 | 143 | 7.0 | 14.0 | 0.00 | 0.00 | 0.00 | 29 | 1013.7 |
| 20260901224832 | 90 | 193 | 5.0 | 13.0 | 0.00 | 0.00 | 0.00 | 29 | 1013.8 |
| 20260901224329 | 91 | 151 | 17.0 | 19.0 | 0.00 | 0.00 | 0.00 | 28 | 1013.8 |
| 20260901223825 | 90 | 139 | 8.0 | 10.0 | 0.00 | 0.00 | 0.00 | 29 | 1013.9 |
| 20260901223320 | 90 | 169 | 8.0 | 14.0 | 0.00 | 0.00 | 0.00 | 28 | 1013.7 |
| 20260901222815 | 91 | 159 | 9.0 | 10.0 | 0.00 | 0.00 | 0.00 | 28 | 1013.7 |
| 20260901222312 | 91 | 164 | 5.0 | 13.0 | 0.00 | 0.00 | 0.00 | 28 | 1013.7 |
| 20260901221807 | 90 | 131 | 7.0 | 9.0 | 0.00 | 0.00 | 0.00 | 29 | 1013.7 |
| 20260901221303 | 90 | 220 | 10.0 | 17.0 | 0.00 | 0.00 | 0.00 | 28 | 1013.9 |
| 20260901220802 | 91 | 202 | 15.0 | 17.0 | 0.00 | 0.00 | 0.00 | 28 | 1013.8 |
| 20260901220256 | 91 | 167 | 2.0 | 23.0 | 0.00 | 0.00 | 0.00 | 28 | 1014.0 |
| 20260901215754 | 91 | 214 | 12.0 | 18.0 | 0.00 | 0.00 | 0.00 | 29 | 1014.0 |
| 20260901215254 | 91 | 174 | 8.0 | 18.0 | 0.00 | 0.00 | 0.00 | 29 | 1014.0 |
| 20260901214753 | 91 | 141 | 14.0 | 18.0 | 0.00 | 0.00 | 0.00 | 29 | 1014.0 |
| 20260901214252 | 91 | 167 | 5.0 | 14.0 | 0.00 | 0.00 | 0.00 | 29 | 1014.0 |
| 20260901213747 | 91 | 202 | 7.0 | 19.0 | 0.00 | 0.00 | 0.00 | 29 | 1014.1 |
| 20260901213247 | 90 | 133 | 17.0 | 18.0 | 0.00 | 0.00 | 0.00 | 30 | 1014.3 |
| 20260901212746 | 92 | 158 | 12.0 | 14.0 | 0.00 | 0.00 | 0.00 | 29 | 1014.2 |
| 20260901212243 | 92 | 151 | 10.0 | 15.0 | 0.00 | 0.00 | 0.00 | 28 | 1014.3 |
| 20260901211737 | 90 | 106 | 7.0 | 13.0 | 0.00 | 0.00 | 0.00 | 31 | 1014.5 |
| 20260901211234 | 89 | 139 | 5.0 | 18.0 | 0.00 | 0.00 | 0.00 | 31 | 1014.6 |
| 20260901210729 | 90 | 144 | 8.0 | 22.0 | 0.00 | 0.00 | 0.00 | 31 | 1014.6 |
| 20260901210225 | 89 | 188 | 5.0 | 13.0 | 0.00 | 0.00 | 0.00 | 31 | 1014.7 |
| 20260901205720 | 90 | 138 | 9.0 | 13.0 | 0.00 | 0.00 | 0.00 | 31 | 1014.8 |
| 20260901205215 | 91 | 133 | 9.0 | 15.0 | 0.00 | 0.00 | 0.00 | 30 | 1014.9 |
| 20260901204711 | 91 | 143 | 12.0 | 17.0 | 0.00 | 0.00 | 0.00 | 31 | 1015.3 |
| 20260901204206 | 90 | 117 | 11.0 | 17.0 | 0.00 | 0.00 | 0.00 | 30 | 1015.0 |
| 20260901203701 | 89 | 120 | 7.0 | 12.0 | 0.00 | 0.00 | 0.00 | 31 | 1015.1 |
| 20260901203156 | 89 | 183 | 6.0 | 18.0 | 0.00 | 0.00 | 0.00 | 31 | 1015.5 |
| 20260901202655 | 90 | 167 | 12.0 | 15.0 | 0.00 | 0.00 | 0.00 | 31 | 1015.5 |
| 20260901202151 | 89 | 159 | 5.0 | 12.0 | 0.00 | 0.00 | 0.00 | 31 | 1015.3 |
| 20260901201647 | 89 | 199 | 7.0 | 8.0 | 0.00 | 0.00 | 0.00 | 31 | 1015.5 |
| 20260901201145 | 90 | 172 | 10.0 | 17.0 | 0.00 | 0.00 | 0.00 | 31 | 1015.8 |
| 20260901200640 | 90 | 188 | 13.0 | 15.0 | 0.00 | 0.00 | 0.00 | 31 | 1015.5 |
| 20260901200135 | 89 | 172 | 4.0 | 10.0 | 0.00 | 0.00 | 0.00 | 31 | 1015.7 |
| 20260901195632 | 89 | 117 | 13.0 | 17.0 | 0.00 | 0.00 | 0.00 | 32 | 1015.6 |
| 20260901195127 | 87 | 161 | 4.0 | 6.0 | 0.00 | 0.00 | 0.00 | 33 | 1015.7 |
| 20260901194622 | 89 | 132 | 17.0 | 19.0 | 0.00 | 0.00 | 0.00 | 32 | 1015.8 |
| 20260901194117 | 88 | 127 | 6.0 | 11.0 | 0.00 | 0.00 | 0.00 | 32 | 1015.7 |
| 20260901193613 | 89 | 136 | 7.0 | 18.0 | 0.00 | 0.00 | 0.00 | 32 | 1016.2 |
| 20260901193107 | 89 | 132 | 12.0 | 13.0 | 0.00 | 0.00 | 0.00 | 32 | 1016.0 |
| 20260901192602 | 89 | 132 | 15.0 | 18.0 | 0.00 | 0.00 | 0.00 | 32 | 1015.9 |
| 20260901192057 | 88 | 104 | 6.0 | 15.0 | 0.00 | 0.00 | 0.00 | 33 | 1016.3 |
| 20260901191553 | 88 | 117 | 8.0 | 13.0 | 0.00 | 0.00 | 0.00 | 33 | 1016.2 |
| 20260901191049 | 87 | 156 | 13.0 | 21.0 | 0.00 | 0.00 | 0.00 | 33 | 1016.4 |
| 20260901190545 | 89 | 167 | 13.0 | 16.0 | 0.00 | 0.00 | 0.00 | 32 | 1016.3 |
| 20260901190044 | 87 | 169 | 4.0 | 20.0 | 0.00 | 0.00 | 0.00 | 33 | 1016.4 |
| 20260901185543 | 88 | 163 | 13.0 | 16.0 | 0.00 | 0.00 | 0.00 | 32 | 1016.6 |
| 20260901185042 | 87 | 168 | 14.0 | 18.0 | 0.00 | 0.00 | 0.00 | 33 | 1016.5 |
| 20260901184537 | 86 | 145 | 4.0 | 14.0 | 0.00 | 0.00 | 0.00 | 34 | 1016.7 |
| 20260901184032 | 87 | 179 | 9.0 | 16.0 | 0.00 | 0.00 | 0.00 | 33 | 1016.8 |
| 20260901183527 | 86 | 165 | 7.0 | 18.0 | 0.00 | 0.00 | 0.00 | 34 | 1016.8 |
| 20260901183022 | 89 | 141 | 17.0 | 21.0 | 0.00 | 0.00 | 0.00 | 32 | 1016.6 |
| 20260901182519 | 87 | 114 | 11.0 | 13.0 | 0.00 | 0.00 | 0.00 | 33 | 1016.8 |
| 20260901182018 | 87 | 121 | 15.0 | 19.0 | 0.00 | 0.00 | 0.00 | 34 | 1017.2 |
| 20260901181518 | 89 | 134 | 20.0 | 21.0 | 0.00 | 0.00 | 0.00 | 32 | 1017.0 |
| 20260901181012 | 87 | 164 | 12.0 | 16.0 | 0.00 | 0.00 | 0.00 | 34 | 1017.1 |
| 20260901180510 | 88 | 112 | 15.0 | 22.0 | 0.00 | 0.00 | 0.00 | 33 | 1017.1 |
| 20260901180011 | 86 | 139 | 7.0 | 11.0 | 0.00 | 0.00 | 0.00 | 35 | 1017.2 |
| 20260901175504 | 87 | 169 | 10.0 | 23.0 | 0.00 | 0.00 | 0.00 | 35 | 1017.1 |
| 20260901174959 | 86 | 143 | 8.0 | 10.0 | 0.00 | 0.00 | 0.00 | 37 | 1017.3 |
| 20260901174455 | 85 | 148 | 6.0 | 14.0 | 0.00 | 0.00 | 0.00 | 37 | 1017.4 |
| 20260901173951 | 86 | 174 | 14.0 | 15.0 | 0.00 | 0.00 | 0.00 | 36 | 1017.4 |
| 20260901173446 | 85 | 140 | 13.0 | 19.0 | 0.00 | 0.00 | 0.00 | 38 | 1017.4 |
| 20260901172942 | 86 | 133 | 15.0 | 18.0 | 0.00 | 0.00 | 0.00 | 36 | 1017.5 |
| 20260901172437 | 86 | 133 | 11.0 | 17.0 | 0.00 | 0.00 | 0.00 | 37 | 1017.4 |
| 20260901171935 | 85 | 203 | 12.0 | 17.0 | 0.00 | 0.00 | 0.00 | 38 | 1017.6 |
| 20260901171433 | 85 | 137 | 9.0 | 13.0 | 0.00 | 0.00 | 0.00 | 38 | 1017.6 |
| 20260901170933 | 85 | 137 | 14.0 | 23.0 | 0.00 | 0.00 | 0.00 | 39 | 1017.4 |
| 20260901170428 | 84 | 150 | 12.0 | 20.0 | 0.00 | 0.00 | 0.00 | 44 | 1017.6 |
| 20260901165927 | 84 | 162 | 19.0 | 21.0 | 0.00 | 0.00 | 0.00 | 40 | 1017.6 |
| 20260901165422 | 84 | 187 | 14.0 | 23.0 | 0.00 | 0.00 | 0.00 | 43 | 1017.9 |
| 20260901164918 | 84 | 160 | 14.0 | 21.0 | 0.00 | 0.00 | 0.00 | 44 | 1018.0 |
| 20260901164418 | 83 | 189 | 12.0 | 16.0 | 0.00 | 0.00 | 0.00 | 46 | 1017.9 |
| 20260901163913 | 83 | 206 | 18.0 | 20.0 | 0.00 | 0.00 | 0.00 | 45 | 1017.6 |
| 20260901163408 | 82 | 150 | 16.0 | 21.0 | 0.00 | 0.00 | 0.00 | 47 | 1017.9 |
| 20260901162903 | 82 | 154 | 9.0 | 17.0 | 0.00 | 0.00 | 0.00 | 48 | 1018.2 |
| 20260901162402 | 82 | 201 | 16.0 | 21.0 | 0.00 | 0.00 | 0.00 | 48 | 1017.9 |
| 20260901161901 | 81 | 200 | 7.0 | 19.0 | 0.00 | 0.00 | 0.00 | 51 | 1017.9 |
| 20260901161355 | 80 | 190 | 12.0 | 17.0 | 0.00 | 0.00 | 0.00 | 52 | 1017.7 |
| 20260901160850 | 81 | 209 | 11.0 | 16.0 | 0.00 | 0.00 | 0.00 | 49 | 1017.7 |
| 20260901160347 | 80 | 205 | 12.0 | 20.0 | 0.00 | 0.00 | 0.00 | 51 | 1018.0 |
| 20260901155846 | 81 | 206 | 16.0 | 21.0 | 0.00 | 0.00 | 0.00 | 51 | 1017.7 |
| 20260901155341 | 80 | 164 | 14.0 | 18.0 | 0.00 | 0.00 | 0.00 | 53 | 1018.1 |
| 20260901154838 | 80 | 213 | 16.0 | 23.0 | 0.00 | 0.00 | 0.00 | 53 | 1017.9 |
| 20260901154336 | 80 | 181 | 6.0 | 16.0 | 0.00 | 0.00 | 0.00 | 52 | 1017.7 |
| 20260901153831 | 79 | 184 | 14.0 | 20.0 | 0.00 | 0.00 | 0.00 | 53 | 1018.0 |
| 20260901153326 | 79 | 199 | 23.0 | 24.0 | 0.00 | 0.00 | 0.00 | 53 | 1017.5 |
| 20260901152825 | 79 | 211 | 17.0 | 22.0 | 0.00 | 0.00 | 0.00 | 53 | 1017.6 |
| 20260901152324 | 79 | 194 | 17.0 | 24.0 | 0.00 | 0.00 | 0.00 | 54 | 1017.9 |
| 20260901151820 | 80 | 157 | 16.0 | 19.0 | 0.00 | 0.00 | 0.00 | 52 | 1018.0 |
| 20260901151320 | 77 | 198 | 20.0 | 24.0 | 0.00 | 0.00 | 0.00 | 56 | 1017.7 |
| 20260901150814 | 77 | 204 | 14.0 | 17.0 | 0.00 | 0.00 | 0.00 | 56 | 1017.6 |
| 20260901150312 | 76 | 196 | 13.0 | 16.0 | 0.00 | 0.00 | 0.00 | 58 | 1017.7 |
| 20260901145809 | 76 | 215 | 15.0 | 16.0 | 0.00 | 0.00 | 0.00 | 57 | 1018.0 |
| 20260901145306 | 76 | 203 | 17.0 | 18.0 | 0.00 | 0.00 | 0.00 | 58 | 1017.9 |
| 20260901144759 | 75 | 193 | 13.0 | 20.0 | 0.00 | 0.00 | 0.00 | 58 | 1018.1 |
| 20260901144255 | 74 | 187 | 12.0 | 20.0 | 0.00 | 0.00 | 0.00 | 60 | 1017.9 |
| 20260901143750 | 75 | 209 | 16.0 | 19.0 | 0.00 | 0.00 | 0.00 | 59 | 1018.0 |
| 20260901143246 | 73 | 192 | 9.0 | 13.0 | 0.00 | 0.00 | 0.00 | 60 | 1018.2 |
| 20260901142743 | 73 | 206 | 4.0 | 14.0 | 0.00 | 0.00 | 0.00 | 60 | 1018.1 |
| 20260901142241 | 73 | 182 | 11.0 | 13.0 | 0.00 | 0.00 | 0.00 | 60 | 1018.0 |
| 20260901141737 | 73 | 200 | 10.0 | 12.0 | 0.00 | 0.00 | 0.00 | 61 | 1017.9 |
| 20260901141237 | 72 | 215 | 9.0 | 12.0 | 0.00 | 0.00 | 0.00 | 62 | 1018.1 |
| 20260901140736 | 72 | 204 | 9.0 | 14.0 | 0.00 | 0.00 | 0.00 | 62 | 1018.0 |
| 20260901140234 | 72 | 181 | 10.0 | 11.0 | 0.00 | 0.00 | 0.00 | 62 | 1018.0 |
| 20260901135730 | 72 | 146 | 13.0 | 15.0 | 0.00 | 0.00 | 0.00 | 62 | 1017.9 |
| 20260901135230 | 72 | 151 | 15.0 | 17.0 | 0.00 | 0.00 | 0.00 | 61 | 1017.4 |
| 20260901134725 | 71 | 151 | 12.0 | 15.0 | 0.00 | 0.00 | 0.00 | 62 | 1017.4 |
| 20260901134220 | 70 | 133 | 9.0 | 15.0 | 0.00 | 0.00 | 0.00 | 62 | 1017.6 |
| 20260901133720 | 70 | 149 | 12.0 | 15.0 | 0.00 | 0.00 | 0.00 | 63 | 1017.6 |
| 20260901133219 | 70 | 133 | 7.0 | 13.0 | 0.00 | 0.00 | 0.00 | 63 | 1017.5 |
| 20260901132717 | 70 | 128 | 12.0 | 14.0 | 0.00 | 0.00 | 0.00 | 63 | 1017.7 |
| 20260901132212 | 69 | 129 | 10.0 | 13.0 | 0.00 | 0.00 | 0.00 | 63 | 1017.4 |
| 20260901131707 | 68 | 126 | 8.0 | 11.0 | 0.00 | 0.00 | 0.00 | 64 | 1017.5 |
| 20260901131206 | 68 | 125 | 8.0 | 11.0 | 0.00 | 0.00 | 0.00 | 64 | 1017.3 |
| 20260901130702 | 68 | 113 | 8.0 | 10.0 | 0.00 | 0.00 | 0.00 | 65 | 1017.4 |
| 20260901130200 | 68 | 109 | 9.0 | 10.0 | 0.00 | 0.00 | 0.00 | 65 | 1017.3 |
| 20260901125658 | 68 | 112 | 8.0 | 10.0 | 0.00 | 0.00 | 0.00 | 65 | 1017.4 |
| 20260901125154 | 68 | 119 | 9.0 | 10.0 | 0.00 | 0.00 | 0.00 | 65 | 1017.4 |
| 20260901124648 | 68 | 125 | 7.0 | 10.0 | 0.00 | 0.00 | 0.00 | 64 | 1017.7 |
| 20260901124143 | 68 | 134 | 9.0 | 10.0 | 0.00 | 0.00 | 0.00 | 64 | 1017.2 |
| 20260901123638 | 68 | 124 | 9.0 | 11.0 | 0.00 | 0.00 | 0.00 | 64 | 1017.4 |
| 20260901123137 | 68 | 125 | 7.0 | 9.0 | 0.00 | 0.00 | 0.00 | 65 | 1017.3 |
| 20260901122636 | 67 | 118 | 5.0 | 7.0 | 0.00 | 0.00 | 0.00 | 65 | 1017.3 |
| 20260901122131 | 67 | 107 | 4.0 | 5.0 | 0.00 | 0.00 | 0.00 | 65 | 1016.7 |
| 20260901121625 | 67 | 114 | 5.0 | 5.0 | 0.00 | 0.00 | 0.00 | 65 | 1017.1 |
| 20260901121120 | 67 | 105 | 4.0 | 6.0 | 0.00 | 0.00 | 0.00 | 64 | 1017.0 |
| 20260901120615 | 67 | 98 | 4.0 | 6.0 | 0.00 | 0.00 | 0.00 | 64 | 1016.8 |
| 20260901120110 | 67 | 89 | 3.0 | 4.0 | 0.00 | 0.00 | 0.00 | 64 | 1017.0 |
| 20260901115605 | 67 | 91 | 3.0 | 5.0 | 0.00 | 0.00 | 0.00 | 64 | 1016.7 |
| 20260901115102 | 68 | 104 | 5.0 | 6.0 | 0.00 | 0.00 | 0.00 | 64 | 1016.6 |
| 20260901114558 | 68 | 104 | 5.0 | 7.0 | 0.00 | 0.00 | 0.00 | 63 | 1017.1 |
| 20260901114057 | 67 | 103 | 4.0 | 7.0 | 0.00 | 0.00 | 0.00 | 63 | 1017.0 |
| 20260901113555 | 68 | 102 | 5.0 | 7.0 | 0.00 | 0.00 | 0.00 | 63 | 1016.6 |
| 20260901113051 | 68 | 101 | 5.0 | 6.0 | 0.00 | 0.00 | 0.00 | 62 | 1016.8 |
| 20260901112551 | 68 | 115 | 5.0 | 7.0 | 0.00 | 0.00 | 0.00 | 62 | 1017.0 |
| 20260901112046 | 68 | 117 | 6.0 | 9.0 | 0.00 | 0.00 | 0.00 | 62 | 1016.7 |
| 20260901111545 | 68 | 128 | 8.0 | 10.0 | 0.00 | 0.00 | 0.00 | 61 | 1017.0 |
| 20260901111043 | 68 | 124 | 7.0 | 10.0 | 0.00 | 0.00 | 0.00 | 61 | 1017.1 |
| 20260901110539 | 68 | 127 | 9.0 | 10.0 | 0.00 | 0.00 | 0.00 | 61 | 1017.0 |
| 20260901110035 | 68 | 120 | 7.0 | 10.0 | 0.00 | 0.00 | 0.00 | 61 | 1016.8 |
| 20260901105532 | 69 | 114 | 10.0 | 13.0 | 0.00 | 0.00 | 0.00 | 60 | 1016.8 |
| 20260901105030 | 68 | 121 | 7.0 | 9.0 | 0.00 | 0.00 | 0.00 | 61 | 1016.5 |
| 20260901104527 | 68 | 122 | 8.0 | 10.0 | 0.00 | 0.00 | 0.00 | 60 | 1016.7 |
| 20260901104022 | 68 | 112 | 7.0 | 8.0 | 0.00 | 0.00 | 0.00 | 61 | 1017.0 |
| 20260901103516 | 68 | 117 | 7.0 | 8.0 | 0.00 | 0.00 | 0.00 | 61 | 1016.3 |
| 20260901103012 | 68 | 118 | 8.0 | 9.0 | 0.00 | 0.00 | 0.00 | 60 | 1016.6 |
| 20260901102512 | 68 | 120 | 8.0 | 9.0 | 0.00 | 0.00 | 0.00 | 60 | 1016.6 |
| 20260901102006 | 68 | 114 | 8.0 | 9.0 | 0.00 | 0.00 | 0.00 | 60 | 1016.2 |
| 20260901101502 | 68 | 117 | 7.0 | 10.0 | 0.00 | 0.00 | 0.00 | 60 | 1016.6 |
| 20260901100955 | 68 | 122 | 7.0 | 8.0 | 0.00 | 0.00 | 0.00 | 60 | 1016.7 |
| 20260901100450 | 68 | 115 | 6.0 | 8.0 | 0.00 | 0.00 | 0.00 | 59 | 1016.5 |
| 20260901095944 | 68 | 118 | 7.0 | 8.0 | 0.00 | 0.00 | 0.00 | 60 | 1016.7 |
| 20260901095443 | 68 | 121 | 7.0 | 9.0 | 0.00 | 0.00 | 0.00 | 59 | 1016.4 |
| 20260901094935 | 68 | 119 | 8.0 | 10.0 | 0.00 | 0.00 | 0.00 | 59 | 1016.6 |
| 20260901094430 | 68 | 117 | 7.0 | 10.0 | 0.00 | 0.00 | 0.00 | 59 | 1016.6 |
| 20260901093930 | 68 | 112 | 7.0 | 8.0 | 0.00 | 0.00 | 0.00 | 59 | 1016.7 |
| 20260901093430 | 68 | 112 | 6.0 | 7.0 | 0.00 | 0.00 | 0.00 | 59 | 1017.0 |
| 20260901092925 | 68 | 112 | 6.0 | 6.0 | 0.00 | 0.00 | 0.00 | 59 | 1016.7 |
| 20260901092421 | 68 | 112 | 6.0 | 6.0 | 0.00 | 0.00 | 0.00 | 59 | 1016.4 |
| 20260901091917 | 68 | 106 | 5.0 | 6.0 | 0.00 | 0.00 | 0.00 | 58 | 1016.5 |
| 20260901091416 | 68 | 103 | 5.0 | 6.0 | 0.00 | 0.00 | 0.00 | 58 | 1016.6 |
| 20260901090912 | 69 | 113 | 6.0 | 7.0 | 0.00 | 0.00 | 0.00 | 57 | 1016.6 |
| 20260901090411 | 69 | 111 | 6.0 | 7.0 | 0.00 | 0.00 | 0.00 | 57 | 1016.6 |
| 20260901085907 | 69 | 115 | 6.0 | 7.0 | 0.00 | 0.00 | 0.00 | 57 | 1016.6 |
| 20260901085403 | 70 | 116 | 7.0 | 8.0 | 0.00 | 0.00 | 0.00 | 56 | 1016.7 |
| 20260901084859 | 70 | 124 | 5.0 | 7.0 | 0.00 | 0.00 | 0.00 | 55 | 1016.4 |
| 20260901084354 | 70 | 127 | 6.0 | 7.0 | 0.00 | 0.00 | 0.00 | 55 | 1016.5 |
| 20260901083849 | 71 | 129 | 7.0 | 10.0 | 0.00 | 0.00 | 0.00 | 55 | 1016.3 |
| 20260901083344 | 71 | 126 | 7.0 | 9.0 | 0.00 | 0.00 | 0.00 | 54 | 1016.4 |
| 20260901082842 | 71 | 127 | 8.0 | 11.0 | 0.00 | 0.00 | 0.00 | 54 | 1016.3 |
| 20260901082338 | 71 | 130 | 8.0 | 10.0 | 0.00 | 0.00 | 0.00 | 54 | 1016.5 |
| 20260901081833 | 71 | 132 | 7.0 | 9.0 | 0.00 | 0.00 | 0.00 | 53 | 1016.2 |
| 20260901081328 | 72 | 137 | 11.0 | 13.0 | 0.00 | 0.00 | 0.00 | 53 | 1016.3 |
| 20260901080827 | 72 | 132 | 8.0 | 11.0 | 0.00 | 0.00 | 0.00 | 53 | 1016.3 |
| 20260901080322 | 72 | 141 | 8.0 | 11.0 | 0.00 | 0.00 | 0.00 | 52 | 1016.5 |
| 20260901075816 | 72 | 129 | 11.0 | 12.0 | 0.00 | 0.00 | 0.00 | 51 | 1016.5 |
| 20260901075311 | 73 | 136 | 11.0 | 12.0 | 0.00 | 0.00 | 0.00 | 51 | 1016.3 |
| 20260901074807 | 73 | 147 | 9.0 | 14.0 | 0.00 | 0.00 | 0.00 | 50 | 1016.2 |
| 20260901074301 | 73 | 137 | 11.0 | 16.0 | 0.00 | 0.00 | 0.00 | 50 | 1016.0 |
| 20260901073757 | 73 | 145 | 11.0 | 14.0 | 0.00 | 0.00 | 0.00 | 50 | 1016.0 |
| 20260901073252 | 73 | 138 | 10.0 | 12.0 | 0.00 | 0.00 | 0.00 | 50 | 1016.3 |
| 20260901072747 | 73 | 138 | 9.0 | 11.0 | 0.00 | 0.00 | 0.00 | 50 | 1016.3 |
| 20260901072242 | 73 | 145 | 10.0 | 11.0 | 0.00 | 0.00 | 0.00 | 49 | 1016.5 |
| 20260901071736 | 74 | 138 | 11.0 | 14.0 | 0.00 | 0.00 | 0.00 | 49 | 1016.2 |
| 20260901071231 | 74 | 146 | 13.0 | 14.0 | 0.00 | 0.00 | 0.00 | 48 | 1016.3 |
| 20260901070729 | 74 | 147 | 9.0 | 17.0 | 0.00 | 0.00 | 0.00 | 48 | 1016.3 |
| 20260901070225 | 74 | 133 | 9.0 | 13.0 | 0.00 | 0.00 | 0.00 | 48 | 1016.3 |
| 20260901065724 | 74 | 140 | 9.0 | 11.0 | 0.00 | 0.00 | 0.00 | 48 | 1016.4 |
| 20260901065220 | 74 | 140 | 10.0 | 12.0 | 0.00 | 0.00 | 0.00 | 48 | 1016.5 |
| 20260901064716 | 74 | 124 | 9.0 | 12.0 | 0.00 | 0.00 | 0.00 | 47 | 1016.3 |
| 20260901064212 | 75 | 131 | 9.0 | 13.0 | 0.00 | 0.00 | 0.00 | 47 | 1016.5 |
| 20260901063709 | 75 | 135 | 10.0 | 11.0 | 0.00 | 0.00 | 0.00 | 47 | 1016.2 |
| 20260901063205 | 75 | 131 | 9.0 | 11.0 | 0.00 | 0.00 | 0.00 | 46 | 1016.4 |
| 20260901062700 | 75 | 137 | 9.0 | 12.0 | 0.00 | 0.00 | 0.00 | 46 | 1016.5 |
| 20260901062156 | 75 | 138 | 10.0 | 12.0 | 0.00 | 0.00 | 0.00 | 45 | 1016.3 |
| 20260901061652 | 75 | 145 | 7.0 | 12.0 | 0.00 | 0.00 | 0.00 | 46 | 1016.5 |
| 20260901061151 | 75 | 147 | 7.0 | 11.0 | 0.00 | 0.00 | 0.00 | 45 | 1016.3 |
| 20260901060647 | 75 | 132 | 9.0 | 11.0 | 0.00 | 0.00 | 0.00 | 45 | 1016.5 |
| 20260901060142 | 76 | 131 | 11.0 | 13.0 | 0.00 | 0.00 | 0.00 | 44 | 1016.2 |
| 20260901055638 | 76 | 151 | 9.0 | 12.0 | 0.00 | 0.00 | 0.00 | 44 | 1016.4 |
| 20260901055134 | 76 | 135 | 9.0 | 14.0 | 0.00 | 0.00 | 0.00 | 44 | 1016.4 |
| 20260901054631 | 76 | 137 | 11.0 | 14.0 | 0.00 | 0.00 | 0.00 | 43 | 1016.5 |
| 20260901054127 | 77 | 139 | 11.0 | 15.0 | 0.00 | 0.00 | 0.00 | 43 | 1016.6 |
| 20260901053623 | 76 | 136 | 9.0 | 12.0 | 0.00 | 0.00 | 0.00 | 43 | 1016.5 |
| 20260901053118 | 77 | 138 | 9.0 | 13.0 | 0.00 | 0.00 | 0.00 | 43 | 1016.4 |
| 20260901052618 | 77 | 143 | 9.0 | 13.0 | 0.00 | 0.00 | 0.00 | 43 | 1016.6 |
| 20260901052114 | 77 | 146 | 9.0 | 15.0 | 0.00 | 0.00 | 0.00 | 42 | 1016.5 |
| 20260901051613 | 77 | 142 | 9.0 | 14.0 | 0.00 | 0.00 | 0.00 | 42 | 1016.2 |
| 20260901051112 | 77 | 150 | 11.0 | 14.0 | 0.00 | 0.00 | 0.00 | 42 | 1016.6 |
| 20260901050608 | 78 | 141 | 12.0 | 15.0 | 0.00 | 0.00 | 0.00 | 41 | 1016.4 |
| 20260901045557 | 78 | 153 | 11.0 | 16.0 | 0.00 | 0.00 | 0.00 | 41 | 1016.5 |
| 20260901045052 | 78 | 134 | 12.0 | 13.0 | 0.00 | 0.00 | 0.00 | 41 | 1016.3 |
| 20260901044548 | 79 | 147 | 9.0 | 13.0 | 0.00 | 0.00 | 0.00 | 40 | 1016.5 |
| 20260901044044 | 78 | 141 | 14.0 | 15.0 | 0.00 | 0.00 | 0.00 | 40 | 1016.4 |
| 20260901043539 | 78 | 141 | 9.0 | 12.0 | 0.00 | 0.00 | 0.00 | 40 | 1016.4 |
| 20260901043035 | 79 | 149 | 10.0 | 13.0 | 0.00 | 0.00 | 0.00 | 40 | 1016.4 |
| 20260901042534 | 79 | 142 | 10.0 | 13.0 | 0.00 | 0.00 | 0.00 | 39 | 1016.4 |